Location: Horowhenua
(40.7500°S, 175.3333°E)
Time: 05:14:02
(UTC+00:00)

Meteor 2-4 Rocket - Pass Details

Date: 28 January 2023
Orbit: 799 x 908 km, 81.2° (Epoch: 01 April)

Event Time Altitude Azimuth Distance (km) Brightness Sun altitude
Exits shadow 13:16:07 44° 100° (E) 1,136 4.4 -30.2°
Drops below altitude 10° 13:20:59 10° 158° (SSE) 2,473 7.0 -30.0°
Sets 13:23:32 0° 164° (SSE) 3,431 8.1 -29.9°
